Wind_Speed
36 38 37 40 41 43 44 46 47 48 48 47 48 50 51 55 57 58 62 63 63 64 64 65 68 69 70 71 73 74 76 77 80 80 82 83 82 80 80 79 79 79 77
38 39 41 44 46 49 47 46 47 48 49 52 55 57 60 62 64 65 64 66 67 71 72 75 78 81 81 83 86 87 87 86 88 86 87 87 89 90 90 86 85 86 85
39 42 44 45 48 50 46 47 50 53 56 59 61 63 66 67 67 68 69 72 73 76 79 83 86 88 90 90 93 96 95 95 95 94 92 93 91 93 92 93 92 92 91
44 44 46 51 53 54 52 56 57 59 61 64 67 70 71 71 73 74 75 79 83 86 89 92 94 96 99 100 101 102 102 102 102 99 100 95 93 92 94 96 95 94 96
46 50 50 49 49 51 56 58 60 63 67 70 74 74 75 77 77 79 84 90 92 92 96 100 101 101 105 105 102 102 102 102 101 99 96 94 94 95 94 93 94 93 95
38 39 42 47 52 54 56 59 64 67 71 73 77 80 82 82 83 88 92 93 96 99 103 106 107 107 111 105 100 99 99 99 99 98 93 90 90 87 88 91 91 90 93
41 44 47 48 50 55 59 64 69 73 76 79 81 83 85 88 91 97 99 102 105 108 111 112 113 116 116 108 101 99 97 98 97 92 87 86 85 83 83 87 88 87 89
46 47 50 55 59 63 67 70 72 75 78 81 83 87 92 96 101 106 111 115 117 117 119 119 119 118 112 103 98 95 95 92 90 88 84 80 76 75 76 77 79 79 79
48 54 56 61 65 69 73 74 78 83 85 88 91 95 100 104 108 113 120 124 124 124 123 122 119 113 104 97 92 88 86 85 83 82 78 76 72 72 73 72 73 75 75
55 59 63 66 69 71 75 80 86 91 93 95 98 102 109 114 117 122 131 129 123 122 120 118 112 106 98 91 86 85 83 82 81 81 78 75 74 73 73 72 71 72 72
60 63 66 70 74 78 82 84 88 92 95 99 106 114 120 125 127 132 133 126 121 117 114 111 103 97 94 90 85 84 84 83 81 79 79 77 75 74 73 72 71 70 71
65 69 72 77 80 83 84 88 95 99 101 110 115 123 130 133 131 131 127 122 116 113 106 99 97 96 94 92 89 84 81 78 77 76 76 75 74 73 73 72 71 70 68
69 73 75 77 80 86 89 95 99 104 106 115 125 129 138 137 132 130 122 115 109 103 100 98 96 93 90 87 84 81 77 74 73 72 71 71 72 71 70 70 70 69 67
72 75 78 83 88 93 96 101 106 109 116 126 128 140 143 134 124 118 113 107 104 103 100 95 91 85 80 77 75 73 70 68 67 66 66 66 66 66 65 65 65 64 63
78 81 86 90 93 96 100 106 112 118 124 132 138 143 131 123 117 110 105 102 101 99 93 86 79 75 72 68 66 65 65 64 63 63 61 60 59 59 58 59 60 60 59
82 86 92 95 97 102 105 110 116 122 130 132 144 130 121 115 109 102 102 99 95 89 84 79 74 69 65 60 58 56 57 57 57 57 57 55 55 55 56 57 57 58 58
91 95 98 101 105 108 112 117 123 125 133 138 130 117 111 108 107 104 97 91 87 82 78 74 69 65 62 59 57 55 54 53 52 52 52 53 53 53 53 54 54 53 53
100 105 107 110 112 117 123 128 131 132 135 128 115 110 109 106 101 96 91 86 80 76 72 68 64 62 59 56 54 52 51 49 47 46 47 49 50 47 48 49 48 46 47
107 109 112 116 119 125 129 134 136 131 124 114 110 108 106 101 95 89 84 79 75 71 67 63 59 56 54 49 48 48 48 45 42 40 42 44 43 41 43 42 43 43 43
113 114 121 124 128 131 134 133 127 119 111 108 107 104 100 94 87 81 77 75 72 68 64 60 55 51 49 46 46 44 43 40 36 36 38 38 39 38 39 39 41 41 42
120 124 128 132 136 137 136 127 118 111 108 106 104 98 90 84 80 77 73 70 68 65 62 58 53 48 44 44 43 41 37 35 34 33 34 35 35 35 37 37 38 38 39
126 129 135 138 137 134 124 117 109 107 106 105 99 90 84 80 76 71 67 64 62 59 56 54 49 43 39 40 43 40 35 33 34 32 33 34 34 35 34 35 35 35 35
135 135 137 138 133 123 115 109 107 108 106 97 90 85 81 76 70 67 63 61 57 54 51 49 47 43 40 40 40 38 36 35 34 32 33 34 32 32 31 32 31 32 33
136 134 132 130 120 113 110 107 106 103 96 89 85 82 76 72 68 63 59 56 54 52 51 48 46 44 42 41 37 34 34 33 31 31 31 31 30 29 29 29 29 30 31
131 125 121 113 109 107 108 105 101 95 89 84 81 76 72 67 64 61 56 54 52 52 52 49 46 44 39 37 34 32 30 29 28 29 29 28 27 27 26 27 28 29 29
119 112 108 108 106 105 104 101 94 88 84 80 75 71 67 64 60 58 57 51 49 48 48 45 42 39 38 34 32 29 27 26 25 26 25 24 24 24 25 25 26 27 26
Wind_Direction
299 301 303 307 313 308 308 310 310 309 308 308 309 305 304 304 306 305 305 305 304 303 304 304 304 302 300 297 294 290 289 287 287 285 283 281 279 276 272 266 265 264 263
299 302 303 309 316 316 310 308 310 310 308 306 304 304 306 306 307 309 308 308 307 306 305 303 302 301 300 299 296 293 292 290 287 285 282 280 278 276 273 269 267 264 261
298 301 307 308 309 312 311 311 310 308 307 306 307 308 308 309 307 306 305 305 303 302 301 303 303 302 299 297 294 293 292 290 289 286 282 280 276 272 270 267 266 264 262
304 304 303 306 307 311 313 313 313 311 309 309 309 308 307 306 305 304 303 303 303 303 304 303 303 302 300 298 295 294 294 293 290 289 285 282 277 273 270 269 266 263 259
299 303 303 306 310 310 308 307 305 308 309 308 306 306 306 305 303 302 302 305 306 305 304 304 303 302 304 301 298 295 292 291 290 287 285 281 277 275 272 269 265 262 259
306 307 309 308 305 304 304 306 307 308 308 306 304 303 303 302 301 303 305 303 302 302 302 303 304 303 305 301 296 295 291 289 287 286 283 279 276 273 271 269 265 261 258
306 305 304 304 303 303 304 307 308 308 307 305 303 304 304 305 304 304 303 304 304 303 304 303 304 304 305 300 297 295 291 288 287 285 282 277 274 271 268 267 264 262 260
306 305 304 304 306 307 309 309 309 308 306 304 305 306 307 306 306 307 306 306 305 304 304 303 304 304 301 297 294 292 289 286 285 283 280 276 273 269 266 262 261 259 258
306 306 307 309 310 311 310 308 307 307 308 307 307 307 309 309 308 309 311 311 306 304 305 305 304 301 298 295 293 290 288 285 284 282 279 276 272 268 264 261 257 255 255
311 309 309 309 310 308 307 307 309 311 312 311 311 312 312 311 312 312 313 311 308 307 306 304 302 300 298 296 295 292 289 285 283 281 279 276 273 269 265 261 258 256 253
309 309 309 307 305 304 307 312 318 318 316 315 316 317 316 313 312 312 311 309 308 306 305 303 302 300 299 297 294 291 288 285 283 280 278 276 274 271 268 266 263 259 254
311 309 306 306 309 313 313 315 316 318 317 317 316 315 316 314 313 311 309 308 307 307 305 304 303 301 299 298 296 292 288 285 283 280 278 276 274 272 270 268 267 265 262
309 308 310 311 312 312 313 315 317 316 315 316 316 316 316 313 312 310 308 307 307 307 305 304 302 299 298 296 294 292 289 286 283 280 278 276 275 274 272 270 269 267 264
311 311 311 311 311 313 313 314 315 315 316 317 316 316 314 312 311 310 309 308 308 306 305 303 301 299 298 297 294 292 289 286 283 280 278 276 275 273 272 270 268 267 265
312 311 313 313 313 314 314 313 315 315 316 316 316 315 313 312 311 311 309 309 307 306 304 303 301 300 298 296 293 292 290 287 284 282 280 277 275 274 273 272 270 268 267
314 312 314 314 313 315 314 313 314 314 316 314 316 314 312 312 310 310 310 309 308 307 306 306 305 303 301 298 295 291 287 284 283 282 282 280 278 275 273 272 270 269 267
315 316 315 315 314 314 313 313 316 315 318 316 315 313 313 313 313 313 312 311 310 309 308 307 306 304 302 301 298 294 289 286 285 283 282 279 276 275 274 272 270 269 269
312 316 317 316 313 313 313 314 317 318 319 316 315 315 315 314 314 313 312 311 310 310 309 307 305 304 303 301 298 294 290 288 286 283 280 277 276 275 273 271 271 270 268
316 316 315 314 312 312 314 316 318 318 317 315 316 316 316 316 315 314 312 312 312 311 309 307 306 305 302 301 296 293 291 290 289 285 278 277 277 275 272 274 272 271 271
316 315 315 314 313 315 315 317 317 316 317 317 317 317 317 315 314 314 314 314 313 311 310 310 308 306 303 300 296 294 293 293 288 281 280 278 276 275 275 274 275 276 273
316 315 314 315 316 318 318 317 316 317 318 318 319 318 316 316 316 315 316 315 313 312 311 310 309 308 306 301 297 296 295 294 288 285 280 278 277 277 275 277 276 274 272
314 312 313 316 317 317 315 316 317 318 319 320 318 318 318 318 316 316 316 313 312 311 310 309 309 309 306 301 299 300 301 295 290 288 283 280 280 278 279 277 276 274 273
313 314 315 317 316 316 316 317 319 320 319 319 319 319 318 318 318 318 316 315 315 314 312 311 312 311 307 302 301 302 299 292 290 287 282 281 280 279 278 276 275 276 277
314 315 316 316 315 316 317 319 319 318 319 320 319 319 319 319 319 318 318 317 317 316 315 315 313 311 308 305 304 298 292 289 288 283 280 279 279 277 275 274 276 277 279
316 315 315 315 316 317 317 318 319 319 319 320 319 319 319 319 318 319 320 319 319 318 316 316 314 311 311 306 304 299 295 290 284 279 277 277 275 273 273 274 277 277 279
314 315 315 315 316 317 317 318 318 318 319 319 319 319 320 319 319 320 320 320 319 318 316 315 313 312 311 309 305 301 295 289 283 278 277 275 272 271 272 275 276 278 280
Height
10669 10665 10662 10659 10657 10654 10649 10645 10640 10636 10631 10626 10622 10617 10610 10604 10598 10593 10586 10579 10573 10567 10562 10556 10550 10544 10539 10533 10528 10524 10519 10514 10508 10509 10504 10503 10502 10502 10500 10500 10500 10500 10502
10663 10659 10655 10652 10648 10642 10638 10634 10630 10625 10620 10616 10610 10605 10599 10591 10582 10574 10566 10559 10553 10547 10542 10537 10531 10524 10519 10511 10502 10496 10493 10489 10482 10480 10474 10475 10472 10468 10467 10470 10471 10474 10476
10657 10654 10649 10644 10639 10633 10628 10623 10619 10614 10608 10602 10595 10588 10582 10575 10567 10559 10552 10544 10537 10529 10521 10514 10507 10499 10492 10486 10476 10467 10461 10455 10451 10443 10440 10438 10441 10430 10431 10433 10437 10441 10445
10648 10644 10639 10635 10628 10623 10616 10609 10603 10597 10591 10584 10578 10571 10565 10558 10549 10542 10534 10525 10514 10507 10497 10488 10479 10471 10462 10455 10444 10434 10425 10416 10412 10407 10400 10399 10397 10396 10394 10392 10395 10404 10409
10641 10635 10630 10624 10619 10614 10608 10601 10595 10587 10580 10573 10565 10556 10547 10540 10533 10523 10515 10504 10492 10481 10473 10464 10454 10442 10431 10422 10411 10401 10391 10380 10372 10370 10365 10362 10359 10357 10356 10355 10355 10362 10366
10634 10629 10623 10618 10612 10606 10599 10591 10583 10575 10566 10557 10549 10541 10532 10523 10514 10502 10493 10483 10472 10461 10449 10437 10425 10413 10400 10389 10378 10369 10359 10348 10339 10334 10331 10328 10324 10323 10322 10320 10319 10326 10326
10626 10621 10616 10610 10604 10597 10589 10580 10570 10561 10552 10542 10531 10520 10510 10501 10490 10478 10468 10456 10444 10431 10418 10404 10392 10378 10367 10354 10344 10335 10324 10313 10304 10300 10298 10296 10292 10290 10291 10288 10288 10290 10291
10617 10610 10604 10598 10590 10582 10573 10563 10554 10542 10532 10522 10510 10499 10488 10476 10462 10447 10434 10420 10407 10394 10381 10369 10355 10342 10330 10320 10311 10301 10290 10282 10275 10268 10264 10262 10260 10260 10259 10260 10260 10263 10265
10605 10598 10591 10583 10574 10565 10556 10547 10538 10526 10515 10502 10489 10475 10461 10446 10434 10420 10404 10389 10371 10356 10339 10325 10314 10303 10293 10284 10275 10266 10257 10249 10242 10237 10233 10230 10229 10229 10230 10232 10234 10238 10242
10593 10585 10577 10568 10559 10551 10540 10529 10519 10508 10494 10480 10465 10452 10438 10421 10406 10390 10370 10350 10333 10317 10303 10289 10276 10263 10254 10247 10241 10232 10225 10218 10212 10207 10204 10200 10198 10199 10200 10203 10207 10210 10216
10582 10572 10563 10554 10545 10535 10525 10513 10498 10484 10470 10456 10442 10426 10408 10388 10371 10354 10335 10316 10301 10285 10269 10254 10242 10229 10218 10212 10209 10200 10193 10185 10180 10177 10173 10171 10169 10170 10171 10173 10176 10181 10186
10568 10558 10549 10538 10526 10515 10503 10490 10476 10460 10445 10429 10413 10396 10378 10359 10340 10321 10302 10283 10266 10253 10236 10222 10209 10197 10187 10176 10169 10166 10161 10155 10149 10145 10143 10141 10141 10141 10142 10144 10147 10151 10154
10552 10542 10532 10520 10507 10494 10481 10468 10453 10439 10423 10406 10390 10371 10350 10326 10307 10287 10269 10250 10234 10219 10206 10192 10180 10168 10157 10147 10139 10133 10129 10125 10121 10117 10115 10113 10113 10114 10115 10116 10118 10120 10124
10537 10526 10514 10502 10489 10475 10461 10446 10429 10412 10396 10378 10359 10339 10315 10292 10273 10254 10235 10218 10202 10187 10176 10165 10151 10139 10129 10120 10112 10105 10101 10098 10094 10091 10090 10089 10089 10089 10089 10091 10091 10093 10095
10517 10506 10493 10481 10469 10455 10440 10422 10404 10386 10366 10347 10327 10303 10277 10255 10237 10222 10206 10190 10174 10158 10146 10135 10125 10115 10106 10099 10090 10082 10075 10071 10069 10067 10067 10067 10067 10065 10066 10066 10066 10067 10069
10499 10485 10472 10459 10445 10432 10416 10398 10380 10363 10342 10318 10295 10268 10245 10226 10209 10197 10177 10160 10144 10130 10117 10107 10098 10088 10080 10075 10068 10064 10057 10052 10049 10046 10045 10045 10044 10044 10044 10045 10046 10045 10046
10475 10464 10450 10434 10418 10403 10388 10373 10358 10337 10314 10290 10261 10238 10217 10197 10178 10160 10145 10131 10117 10104 10093 10082 10074 10065 10059 10054 10048 10042 10037 10034 10032 10030 10027 10024 10024 10024 10025 10024 10025 10026 10027
10455 10440 10423 10408 10391 10376 10359 10341 10322 10301 10275 10251 10229 10210 10190 10170 10151 10134 10119 10106 10094 10082 10072 10063 10055 10048 10041 10036 10029 10023 10018 10016 10015 10013 10010 10005 10005 10008 10007 10006 10008 10010 10011
10429 10414 10399 10382 10365 10349 10330 10308 10287 10266 10244 10221 10199 10180 10160 10142 10124 10110 10096 10083 10072 10062 10053 10045 10038 10031 10023 10019 10012 10007 10002 10001 10000 9998 9993 9990 9991 9993 9991 9992 9992 9994 9995
10404 10389 10373 10355 10336 10315 10296 10275 10252 10231 10212 10192 10173 10153 10135 10120 10104 10090 10076 10062 10051 10042 10034 10026 10021 10016 10008 10002 9996 9992 9988 9987 9985 9983 9980 9978 9978 9979 9979 9978 9978 9979 9979
10375 10359 10339 10320 10302 10279 10257 10240 10221 10200 10182 10163 10145 10129 10113 10098 10084 10069 10057 10045 10034 10024 10017 10009 10005 10000 9995 9986 9980 9977 9976 9973 9972 9970 9969 9967 9966 9967 9966 9967 9966 9965 9964
10347 10328 10308 10286 10265 10249 10228 10210 10193 10175 10156 10137 10121 10105 10092 10079 10065 10052 10041 10031 10022 10012 10003 9995 9990 9987 9982 9973 9965 9963 9963 9960 9958 9957 9956 9954 9955 9955 9954 9954 9953 9952 9951
10316 10297 10278 10257 10233 10215 10198 10182 10165 10148 10131 10115 10099 10085 10073 10060 10047 10036 10025 10015 10006 9998 9989 9981 9975 9970 9966 9960 9956 9952 9950 9947 9946 9946 9944 9943 9943 9942 9942 9941 9941 9940 9939
10285 10266 10246 10227 10206 10189 10172 10156 10141 10126 10109 10093 10079 10067 10054 10041 10029 10021 10011 10002 9992 9983 9974 9968 9962 9956 9951 9946 9943 9940 9937 9936 9935 9934 9933 9932 9933 9932 9932 9931 9931 9929 9928
10251 10234 10215 10198 10181 10165 10150 10135 10118 10104 10088 10075 10063 10050 10038 10026 10015 10005 9998 9989 9980 9970 9960 9953 9948 9941 9938 9933 9930 9927 9926 9925 9924 9923 9922 9923 9923 9923 9923 9922 9921 9920 9919
10222 10208 10191 10173 10160 10143 10126 10113 10099 10085 10071 10057 10046 10036 10024 10013 10002 9991 9982 9979 9971 9961 9951 9944 9936 9931 9925 9922 9919 9917 9916 9915 9914 9913 9913 9913 9914 9914 9914 9914 9912 9911 9911